ELEKTRON 1 DEB, 750

Orbit data source: Space-Track

ELEKTRON 1 DEB, 750 is space debris in LEO originally from a launch on Thu, 30 Jan 1964 UTC launched from the Tyuratam Missile And Space Complex (TTMTR). Debris objects in space refer to the collection of defunct objects orbiting the Earth. Examples of debris include non-operational satellites, rocket bodies, and fragments generated from explosions, collisions, or faulty payload assembly.

Loading next visibility...
Identifier
750, 1964-006C
Orbit
LEO
Country
Flag of CISCIS
Related business
Manufacturer
OKB-1
Mission
Spacecraft
Bus & Motor
ADAPTER, Unknown motor
Mass
Unknown
Launch date (UTC)
1964-01-30 (62 years ago)
Launch vehicle
Unknown
Launch site
Tyuratam Missile And Space Complex (TTMTR)
Object type
Payload
Rocket body
Debris
Shape & HBR
Unknown shape, 0.3 m
Radar Cross Section
Medium (>0.1 m² and <1 m²)

Expand to show TLE details & history
Last TLE update: 15 hours ago

TLE from 15 hours ago
0 ELEKTRON 1 DEB
1   750U 64006C   26036.28599041  .00040389  00000-0  40584-2 0  9990
2   750  60.7523 306.0966 1400327   0.9047 359.3995 12.46176528830189
Epoch: 2026-02-05T06:51Z
TLE epoch observation values (Epoch: 2026-02-05T06:51:49.571Z)
Latitude
-0.0001°
Longitude
67.6996°
Altitude
381.574 km
Speed
8.201 km/s
True Right ascension
20h 24m 23s
True Declination
0° 00' 00"
Sunlit
Object was in daylight at epoch
Visualization orbit readout
Latitude
Unknown
Longitude
Unknown
Altitude
Unknown
Speed
Unknown
Apparent Right ascension
Unknown
Apparent Declination
Unknown
Sunlit
N/A
Visualization observer readout
Local Sidereal Time
00:13:41
Azimuth
Unknown
Elevation
Unknown
Doppler factor
Unknown
Orbital elements
Apogee altitude
2,580.07 km
Perigee altitude
379.358 km
Semi-major axis
7,857.851 km
Eccentricity
0.14003
Inclination
60.7523°
RAAN
306.0966°
Arg. of periapsis
0.9047°
True anomaly
359.19602°
Mean anomaly
359.3995°
Eccentric anomaly
359.30172°
Mean motion
3.11593 °/min
Orbital period
115.54 mins
BSTAR
0.0040584
Loading maneuver chart data...
Computing Atmospheric mass density...

Documentation

Showing up to 5 results
|